Time,TemperatureF,DewpointF,PressureIn,WindDirection,WindDirectionDegrees,WindSpeedMPH,WindSpeedGustMPH,Humidity,HourlyPrecipIn,Conditions,Clouds,dailyrainin,SolarRadiationWatts/m^2,SoftwareType,DateUTC
2013-05-13 00:03:00,41.1,36.0,30.12,NE,44,1.0,5.0,83,0.00,,,0.00,0,weatherlink.com 1.10,2013-05-13 05:03:00,
2013-05-13 00:18:00,40.1,36.0,30.12,NNE,30,0.0,4.0,85,0.00,,,0.00,0,weatherlink.com 1.10,2013-05-13 05:18:00,
2013-05-13 00:33:00,39.9,36.0,30.13,NE,53,2.0,4.0,86,0.00,,,0.00,0,weatherlink.com 1.10,2013-05-13 05:33:00,
2013-05-13 00:48:00,39.8,37.0,30.13,SW,216,0.0,4.0,88,0.00,,,0.00,0,weatherlink.com 1.10,2013-05-13 05:48:00,
2013-05-13 01:03:00,39.2,36.0,30.13,SE,139,0.0,3.0,89,0.00,,,0.00,0,weatherlink.com 1.10,2013-05-13 06:03:00,
2013-05-13 01:18:00,38.9,36.0,30.13,NNE,18,0.0,3.0,90,0.00,,,0.00,0,weatherlink.com 1.10,2013-05-13 06:18:00,
2013-05-13 01:33:00,38.7,36.0,30.13,East,92,0.0,3.0,90,0.00,,,0.00,0,weatherlink.com 1.10,2013-05-13 06:33:00,
2013-05-13 01:48:00,38.6,36.0,30.13,North,5,0.0,3.0,90,0.00,,,0.00,0,weatherlink.com 1.10,2013-05-13 06:48:00,
2013-05-13 02:03:00,38.5,36.0,30.13,WSW,256,0.0,3.0,89,0.00,,,0.00,0,weatherlink.com 1.10,2013-05-13 07:03:00,
2013-05-13 02:18:00,38.4,36.0,30.13,South,174,1.0,2.0,89,0.00,,,0.00,0,weatherlink.com 1.10,2013-05-13 07:18:00,
2013-05-13 02:33:00,38.4,36.0,30.13,South,174,0.0,1.0,89,0.00,,,0.00,0,weatherlink.com 1.10,2013-05-13 07:33:00,
2013-05-13 02:48:00,38.3,35.0,30.12,South,174,0.0,1.0,89,0.00,,,0.00,0,weatherlink.com 1.10,2013-05-13 07:48:00,
2013-05-13 03:03:00,38.2,35.0,30.12,South,174,0.0,1.0,89,0.00,,,0.00,0,weatherlink.com 1.10,2013-05-13 08:03:00,
2013-05-13 03:18:00,37.8,35.0,30.13,South,174,0.0,0.0,89,0.00,,,0.00,0,weatherlink.com 1.10,2013-05-13 08:18:00,
2013-05-13 03:33:00,37.7,35.0,30.12,South,174,0.0,1.0,90,0.00,,,0.00,0,weatherlink.com 1.10,2013-05-13 08:33:00,
2013-05-13 03:48:00,37.8,35.0,30.12,South,175,1.0,3.0,90,0.00,,,0.00,0,weatherlink.com 1.10,2013-05-13 08:48:00,
2013-05-13 04:03:00,37.1,35.0,30.12,South,175,0.0,1.0,90,0.00,,,0.00,0,weatherlink.com 1.10,2013-05-13 09:03:00,
2013-05-13 04:18:00,37.1,35.0,30.12,South,175,0.0,0.0,91,0.00,,,0.00,0,weatherlink.com 1.10,2013-05-13 09:18:00,
2013-05-13 04:33:00,37.1,35.0,30.12,South,175,1.0,2.0,91,0.00,,,0.00,0,weatherlink.com 1.10,2013-05-13 09:33:00,
2013-05-13 04:48:00,37.0,35.0,30.12,South,175,0.0,1.0,91,0.00,,,0.00,0,weatherlink.com 1.10,2013-05-13 09:48:00,
2013-05-13 05:03:00,37.1,35.0,30.12,South,175,0.0,0.0,91,0.00,,,0.00,0,weatherlink.com 1.10,2013-05-13 10:03:00,
2013-05-13 05:18:00,37.0,35.0,30.12,South,175,0.0,0.0,91,0.00,,,0.00,0,weatherlink.com 1.10,2013-05-13 10:18:00,
2013-05-13 05:33:00,36.3,34.0,30.13,South,175,0.0,0.0,91,0.00,,,0.00,5,weatherlink.com 1.10,2013-05-13 10:33:00,
2013-05-13 05:48:00,36.0,34.0,30.13,South,175,0.0,0.0,92,0.00,,,0.00,14,weatherlink.com 1.10,2013-05-13 10:48:00,
2013-05-13 06:03:00,36.7,35.0,30.14,South,175,0.0,0.0,93,0.00,,,0.00,23,weatherlink.com 1.10,2013-05-13 11:03:00,
2013-05-13 06:18:00,37.5,36.0,30.14,South,175,0.0,0.0,93,0.00,,,0.00,53,weatherlink.com 1.10,2013-05-13 11:18:00,
2013-05-13 06:33:00,38.5,36.0,30.15,South,175,0.0,1.0,92,0.00,,,0.00,35,weatherlink.com 1.10,2013-05-13 11:33:00,
2013-05-13 06:48:00,39.3,37.0,30.15,South,175,0.0,1.0,90,0.00,,,0.00,132,weatherlink.com 1.10,2013-05-13 11:48:00,
2013-05-13 07:03:00,40.4,37.0,30.16,South,175,1.0,1.0,86,0.00,,,0.00,165,weatherlink.com 1.10,2013-05-13 12:03:00,
2013-05-13 07:19:00,41.5,35.0,30.16,South,175,0.0,3.0,78,0.00,,,0.00,74,weatherlink.com 1.10,2013-05-13 12:19:00,
2013-05-13 07:34:00,42.7,33.0,30.16,South,174,0.0,3.0,69,0.00,,,0.00,165,weatherlink.com 1.10,2013-05-13 12:34:00,
2013-05-13 07:49:00,43.5,32.0,30.17,South,174,0.0,4.0,63,0.00,,,0.00,176,weatherlink.com 1.10,2013-05-13 12:49:00,
2013-05-13 08:04:00,45.1,36.0,30.17,South,181,1.0,3.0,71,0.00,,,0.00,316,weatherlink.com 1.10,2013-05-13 13:04:00,
2013-05-13 08:19:00,45.4,38.0,30.18,South,191,2.0,3.0,74,0.00,,,0.00,385,weatherlink.com 1.10,2013-05-13 13:19:00,
2013-05-13 08:34:00,46.8,39.0,30.17,SSW,194,1.0,3.0,75,0.00,,,0.00,504,weatherlink.com 1.10,2013-05-13 13:34:00,
2013-05-13 08:49:00,47.1,39.0,30.18,ENE,57,1.0,3.0,73,0.00,,,0.00,548,weatherlink.com 1.10,2013-05-13 13:49:00,
2013-05-13 09:05:00,47.4,40.0,30.18,South,176,0.0,3.0,74,0.00,,,0.00,596,weatherlink.com 1.10,2013-05-13 14:05:00,
2013-05-13 09:19:00,47.8,39.0,30.18,South,184,1.0,4.0,72,0.00,,,0.00,636,weatherlink.com 1.10,2013-05-13 14:19:00,
2013-05-13 09:34:00,48.1,38.0,30.18,SSE,159,1.0,4.0,68,0.00,,,0.00,675,weatherlink.com 1.10,2013-05-13 14:34:00,
2013-05-13 09:49:00,48.2,36.0,30.18,NE,51,1.0,4.0,64,0.00,,,0.00,708,weatherlink.com 1.10,2013-05-13 14:49:00,
2013-05-13 10:04:00,48.3,37.0,30.18,South,178,2.0,3.0,66,0.00,,,0.00,742,weatherlink.com 1.10,2013-05-13 15:04:00,
2013-05-13 10:19:00,48.5,38.0,30.18,SSW,196,0.0,4.0,66,0.00,,,0.00,773,weatherlink.com 1.10,2013-05-13 15:19:00,
2013-05-13 10:34:00,49.1,38.0,30.18,South,171,2.0,4.0,65,0.00,,,0.00,805,weatherlink.com 1.10,2013-05-13 15:34:00,
2013-05-13 10:49:00,49.7,37.0,30.18,ENE,67,0.0,5.0,61,0.00,,,0.00,830,weatherlink.com 1.10,2013-05-13 15:49:00,
2013-05-13 11:04:00,49.9,37.0,30.18,SSW,194,2.0,7.0,62,0.00,,,0.00,851,weatherlink.com 1.10,2013-05-13 16:04:00,
2013-05-13 11:19:00,50.3,36.0,30.18,South,173,1.0,8.0,58,0.00,,,0.00,870,weatherlink.com 1.10,2013-05-13 16:19:00,
2013-05-13 11:35:00,50.2,37.0,30.18,South,185,1.0,5.0,60,0.00,,,0.00,888,weatherlink.com 1.10,2013-05-13 16:35:00,
2013-05-13 11:50:00,49.8,36.0,30.17,South,175,4.0,5.0,60,0.00,,,0.00,905,weatherlink.com 1.10,2013-05-13 16:50:00,
2013-05-13 12:05:00,51.0,38.0,30.17,SW,225,2.0,5.0,61,0.00,,,0.00,912,weatherlink.com 1.10,2013-05-13 17:05:00,
2013-05-13 12:20:00,49.8,37.0,30.16,SSE,163,3.0,8.0,62,0.00,,,0.00,930,weatherlink.com 1.10,2013-05-13 17:20:00,
2013-05-13 12:35:00,49.8,37.0,30.16,SSW,195,6.0,7.0,62,0.00,,,0.00,916,weatherlink.com 1.10,2013-05-13 17:35:00,
2013-05-13 12:50:00,49.5,38.0,30.16,SSE,157,2.0,6.0,66,0.00,,,0.00,928,weatherlink.com 1.10,2013-05-13 17:50:00,
2013-05-13 13:05:00,49.8,38.0,30.15,South,187,3.0,8.0,65,0.00,,,0.00,926,weatherlink.com 1.10,2013-05-13 18:05:00,
2013-05-13 13:20:00,49.5,38.0,30.15,SSW,192,2.0,7.0,66,0.00,,,0.00,919,weatherlink.com 1.10,2013-05-13 18:20:00,
2013-05-13 13:35:00,49.7,37.0,30.14,South,178,1.0,6.0,62,0.00,,,0.00,911,weatherlink.com 1.10,2013-05-13 18:35:00,
2013-05-13 13:50:00,49.6,36.0,30.14,SSW,204,3.0,9.0,60,0.00,,,0.00,909,weatherlink.com 1.10,2013-05-13 18:50:00,
2013-05-13 14:05:00,48.7,35.0,30.14,SSW,194,2.0,10.0,60,0.00,,,0.00,884,weatherlink.com 1.10,2013-05-13 19:05:00,
2013-05-13 14:20:00,49.6,36.0,30.14,ESE,114,2.0,7.0,59,0.00,,,0.00,865,weatherlink.com 1.10,2013-05-13 19:20:00,
2013-05-13 14:35:00,49.5,35.0,30.13,South,186,1.0,9.0,58,0.00,,,0.00,851,weatherlink.com 1.10,2013-05-13 19:35:00,
2013-05-13 14:50:00,48.7,34.0,30.13,South,183,4.0,7.0,58,0.00,,,0.00,816,weatherlink.com 1.10,2013-05-13 19:50:00,
2013-05-13 15:05:00,48.7,34.0,30.12,South,177,3.0,8.0,58,0.00,,,0.00,763,weatherlink.com 1.10,2013-05-13 20:05:00,
2013-05-13 15:20:00,48.4,35.0,30.11,SE,142,1.0,7.0,60,0.00,,,0.00,715,weatherlink.com 1.10,2013-05-13 20:20:00,
2013-05-13 15:35:00,48.5,35.0,30.11,South,187,4.0,6.0,61,0.00,,,0.00,663,weatherlink.com 1.10,2013-05-13 20:35:00,
2013-05-13 15:50:00,47.8,35.0,30.11,South,184,7.0,7.0,62,0.00,,,0.00,640,weatherlink.com 1.10,2013-05-13 20:50:00,
2013-05-13 16:05:00,47.2,34.0,30.10,South,175,2.0,7.0,60,0.00,,,0.00,601,weatherlink.com 1.10,2013-05-13 21:05:00,
2013-05-13 16:20:00,47.3,34.0,30.10,East,97,5.0,9.0,61,0.00,,,0.00,548,weatherlink.com 1.10,2013-05-13 21:20:00,
2013-05-13 16:35:00,46.6,34.0,30.09,South,171,6.0,7.0,63,0.00,,,0.00,234,weatherlink.com 1.10,2013-05-13 21:35:00,
2013-05-13 16:50:00,46.1,35.0,30.09,SSW,192,3.0,6.0,65,0.00,,,0.00,294,weatherlink.com 1.10,2013-05-13 21:50:00,
2013-05-13 17:05:00,45.9,35.0,30.09,SSE,163,2.0,7.0,65,0.00,,,0.00,260,weatherlink.com 1.10,2013-05-13 22:05:00,
2013-05-13 17:20:00,45.8,34.0,30.09,South,190,1.0,7.0,64,0.00,,,0.00,237,weatherlink.com 1.10,2013-05-13 22:20:00,
2013-05-13 17:35:00,45.0,33.0,30.09,South,169,7.0,9.0,64,0.00,,,0.00,172,weatherlink.com 1.10,2013-05-13 22:35:00,
2013-05-13 17:50:00,45.1,35.0,30.08,South,176,3.0,6.0,67,0.00,,,0.00,123,weatherlink.com 1.10,2013-05-13 22:50:00,
2013-05-13 18:05:00,44.5,34.0,30.08,South,181,2.0,7.0,67,0.00,,,0.00,107,weatherlink.com 1.10,2013-05-13 23:05:00,
2013-05-13 18:20:00,44.4,34.0,30.08,SSE,167,3.0,7.0,68,0.00,,,0.00,69,weatherlink.com 1.10,2013-05-13 23:20:00,
2013-05-13 18:35:00,43.9,34.0,30.07,South,186,4.0,10.0,69,0.00,,,0.00,44,weatherlink.com 1.10,2013-05-13 23:35:00,
2013-05-13 18:50:00,44.1,35.0,30.06,South,184,4.0,8.0,70,0.00,,,0.00,28,weatherlink.com 1.10,2013-05-13 23:50:00,
2013-05-13 19:05:00,44.1,35.0,30.05,South,190,2.0,7.0,70,0.00,,,0.00,23,weatherlink.com 1.10,2013-05-14 00:05:00,
2013-05-13 19:20:00,44.0,34.0,30.05,SSW,192,7.0,7.0,69,0.00,,,0.00,12,weatherlink.com 1.10,2013-05-14 00:20:00,
2013-05-13 19:35:00,44.0,35.0,30.05,South,187,2.0,8.0,70,0.00,,,0.00,9,weatherlink.com 1.10,2013-05-14 00:35:00,
2013-05-13 19:50:00,44.2,35.0,30.05,South,173,0.0,6.0,71,0.00,,,0.00,5,weatherlink.com 1.10,2013-05-14 00:50:00,
2013-05-13 20:05:00,44.4,35.0,30.04,South,179,2.0,7.0,70,0.00,,,0.00,0,weatherlink.com 1.10,2013-05-14 01:05:00,
2013-05-13 20:20:00,44.5,35.0,30.05,South,181,2.0,6.0,70,0.00,,,0.00,0,weatherlink.com 1.10,2013-05-14 01:20:00,
2013-05-13 20:35:00,44.7,36.0,30.06,South,173,2.0,4.0,71,0.00,,,0.00,0,weatherlink.com 1.10,2013-05-14 01:35:00,
2013-05-13 20:50:00,45.0,35.0,30.07,South,184,0.0,4.0,69,0.00,,,0.00,0,weatherlink.com 1.10,2013-05-14 01:50:00,
2013-05-13 21:05:00,45.1,35.0,30.07,South,169,0.0,3.0,69,0.00,,,0.00,0,weatherlink.com 1.10,2013-05-14 02:05:00,
2013-05-13 21:20:00,45.1,35.0,30.05,South,188,0.0,2.0,69,0.00,,,0.00,0,weatherlink.com 1.10,2013-05-14 02:20:00,
2013-05-13 21:35:00,45.0,36.0,30.04,South,186,2.0,4.0,71,0.00,,,0.00,0,weatherlink.com 1.10,2013-05-14 02:35:00,
2013-05-13 21:50:00,45.4,36.0,30.04,SSW,202,0.0,6.0,69,0.00,,,0.00,0,weatherlink.com 1.10,2013-05-14 02:50:00,
2013-05-13 22:05:00,45.6,35.0,30.04,SSE,166,1.0,4.0,67,0.00,,,0.00,0,weatherlink.com 1.10,2013-05-14 03:05:00,
2013-05-13 22:20:00,45.6,35.0,30.03,South,183,6.0,6.0,67,0.00,,,0.00,0,weatherlink.com 1.10,2013-05-14 03:20:00,
2013-05-13 22:35:00,45.8,35.0,30.02,South,177,1.0,7.0,67,0.00,,,0.00,0,weatherlink.com 1.10,2013-05-14 03:35:00,
2013-05-13 22:50:00,46.1,36.0,30.01,South,175,2.0,7.0,69,0.00,,,0.00,0,weatherlink.com 1.10,2013-05-14 03:50:00,
2013-05-13 23:05:00,46.5,37.0,30.00,SE,143,4.0,7.0,69,0.00,,,0.00,0,weatherlink.com 1.10,2013-05-14 04:05:00,
2013-05-13 23:20:00,46.9,37.0,29.99,South,190,6.0,8.0,68,0.00,,,0.00,0,weatherlink.com 1.10,2013-05-14 04:20:00,
2013-05-13 23:35:00,47.2,37.0,29.98,SSW,196,4.0,8.0,67,0.00,,,0.00,0,weatherlink.com 1.10,2013-05-14 04:35:00,
2013-05-13 23:50:00,47.6,37.0,29.96,South,184,4.0,8.0,67,0.00,,,0.00,0,weatherlink.com 1.10,2013-05-14 04:50:00,